THOR ABLESTAR DEB, 334

Orbit data source: Space-Track

THOR ABLESTAR DEB, 334 is space debris in LEO originally from a launch on Thu, 29 Jun 1961 UTC launched from the Air Force Eastern Test Range (AFETR). Debris objects in space refer to the collection of defunct objects orbiting the Earth. Examples of debris include non-operational satellites, rocket bodies, and fragments generated from explosions, collisions, or faulty payload assembly.

Loading next visibility...
Identifier
334, 1961-015DL
Orbit
LEO
Country
Flag of USUS
Related business
Manufacturer
Unknown
Mission
Spacecraft
Bus & Motor
Unknown
Mass
Unknown
Launch date (UTC)
1961-06-29 (64 years ago)
Launch vehicle
Unknown
Launch site
Air Force Eastern Test Range (AFETR)
Object type
Payload
Rocket body
Debris
Shape & HBR
Unknown
Radar Cross Section
Small (<0.1 m²)

Expand to show TLE details & history
Last TLE update: 18 hours ago

TLE from 18 hours ago
0 THOR ABLESTAR DEB
1 00334U 61015DL  25260.05959791 -.00000011  00000-0  50124-4 0  9992
2 00334  66.9229 128.5369 0084942 297.4583  61.7879 13.91684339258050
Epoch: 2025-09-17T01:25Z
TLE epoch observation values (Epoch: 2025-09-17T01:25:49.259Z)
Latitude
0.00002°
Longitude
110.84068°
Altitude
895.912 km
Speed
7.419 km/s
True Right ascension
08h 34m 08s
True Declination
0° 00' 00"
Sunlit
Object was in daylight at epoch
Visualization orbit readout
Latitude
Unknown
Longitude
Unknown
Altitude
Unknown
Speed
Unknown
Apparent Right ascension
Unknown
Apparent Declination
Unknown
Sunlit
N/A
Visualization observer readout
Local Sidereal Time
12:28:00
Azimuth
Unknown
Elevation
Unknown
Doppler factor
Unknown
Orbital elements
Apogee altitude
983.114 km
Perigee altitude
859.111 km
Semi-major axis
7,299.25 km
Eccentricity
0.00849
Inclination
66.9229°
RAAN
128.5369°
Arg. of periapsis
297.4583°
True anomaly
62.64993°
Mean anomaly
61.7879°
Eccentric anomaly
62.21848°
Mean motion
3.48037 °/min
Orbital period
103.44 mins
BSTAR
0.000050124
Loading maneuver chart data...
Computing Atmospheric mass density...

Documentation

Showing up to 5 results
|